Volver al catálogo

STARLINK-6321

ActivoComunicacionesVLEO
NORAD 57340·PAYLOAD·🇺🇸 United States

Lanzado Jul 16, 2023 desde Cape Canaveral Space Force Station

Loading…

Próximos Pases (próximas 24 horas)

TLE

ActualizadoSource: CelesTrak SupGP

Época: Sep 14, 2026, 20:59 UTC

1 57340C 23099N   26257.87479167  .00023202  00000+0  84030-3 0  2576
2 57340  43.0015 264.3834 0000746 334.4723  76.7935 15.27570785    12

Sigue STARLINK-6321 en tiempo real con AllMySat

Download on the App Store